Glidden, IA

6:28 PM CDT on August 28, 2016 (GMT -0500)
Neu

Weather History for KCIN - May, 2014

Change the Weather History Date:

Friday, May 9, 2014

  Actual Average Record
Temperature  
Mean Temperature 58 °F -  
Max Temperature 68 °F 72 °F 93 °F (2011)
Min Temperature 48 °F 44 °F 25 °F (1966)
Degree Days  
Heating Degree Days 7    
Growing Degree Days 8 (Base 50)    
Moisture  
Dew Point 39 °F    
Average Humidity 59    
Maximum Humidity 87    
Minimum Humidity 24    
Precipitation  
Precipitation 0.00 in - - ()
Sea Level Pressure  
Sea Level Pressure 29.79 in    
Wind  
Wind Speed 16 mph (West)    
Max Wind Speed 23 mph    
Max Gust Speed 29 mph    
Visibility 10 miles    
Events      
Averages and records for this station are not official NWS values.
T = Trace of Precipitation, MM = Missing Value Source: NWS Daily Summary

Daily Weather History Graph

Daily Weather History Graph

Search for Another Location

Airport or City:

Trip Planner

Search our weather history database for the weather conditions in past years. The results will help you decide how hot, cold, wet, or windy it might be!

Date:

Astronomy

May. 09, 2014 Rise Set
Actual Time 6:05 AM CDT 8:26 PM CDT
Civil Twilight 5:33 AM CDT 8:58 PM CDT
Nautical Twilight 4:54 AM CDT 9:37 PM CDT
Astronomical Twilight 4:11 AM CDT 10:20 PM CDT
Moon 3:19 PM CDT (5/9) 3:13 AM CDT (5/9)
Length of Visible Light 15h 24m
Length of Day
14h 21m
Waxing Gibbous, 74% of the Moon is Illuminated
May 9
Waxing Gibbous
May 14
Full
May 21
Last Quarter
May 28
New
Jun 5
First Quarter

Hourly Weather History & Observations

Time (CDT) Temp. Dew Point Humidity Pressure Visibility Wind Dir Wind Speed Gust Speed Precip Events Conditions
12:15 AM 51.8 °F 44.6 °F 76% 29.73 in 10.0 mi West 19.6 mph - N/A   Overcast
12:35 AM 51.8 °F 44.6 °F 76% 29.73 in 10.0 mi West 15.0 mph 25.3 mph N/A   Overcast
12:55 AM 51.8 °F 44.6 °F 76% 29.73 in 10.0 mi West 18.4 mph 24.2 mph N/A   Overcast
1:15 AM 50.0 °F 44.6 °F 82% 29.73 in 10.0 mi West 16.1 mph 23.0 mph N/A   Overcast
1:35 AM 50.0 °F 44.6 °F 82% 29.73 in 10.0 mi West 20.7 mph 27.6 mph N/A   Overcast
1:55 AM 50.0 °F 44.6 °F 82% 29.73 in 10.0 mi West 18.4 mph 24.2 mph N/A   Overcast
2:15 AM 50.0 °F 44.6 °F 82% 29.73 in 10.0 mi West 19.6 mph - N/A   Overcast
2:35 AM 48.2 °F 42.8 °F 82% 29.73 in 10.0 mi West 18.4 mph - N/A   Overcast
2:55 AM 48.2 °F 42.8 °F 82% 29.72 in 10.0 mi West 23.0 mph 28.8 mph N/A   Overcast
3:15 AM 48.2 °F 42.8 °F 82% 29.72 in 10.0 mi West 19.6 mph - N/A   Overcast
3:35 AM 48.2 °F 42.8 °F 82% 29.73 in 10.0 mi WNW 16.1 mph - N/A   Overcast
3:55 AM 48.2 °F 42.8 °F 82% 29.74 in 10.0 mi West 17.3 mph - N/A   Overcast
4:15 AM 48.2 °F 44.6 °F 87% 29.74 in 10.0 mi West 17.3 mph - N/A   Overcast
4:35 AM 48.2 °F 42.8 °F 82% 29.75 in 10.0 mi WNW 18.4 mph 28.8 mph N/A   Overcast
4:55 AM 48.2 °F 42.8 °F 82% 29.75 in 10.0 mi WNW 13.8 mph 19.6 mph N/A   Overcast
5:15 AM 48.2 °F 42.8 °F 82% 29.76 in 10.0 mi NW 15.0 mph 20.7 mph N/A   Overcast
5:35 AM 48.2 °F 42.8 °F 82% 29.77 in 10.0 mi WNW 19.6 mph - N/A   Overcast
5:55 AM 48.2 °F 42.8 °F 82% 29.78 in 10.0 mi West 9.2 mph 19.6 mph N/A   Overcast
6:15 AM 48.2 °F 42.8 °F 82% 29.78 in 10.0 mi West 12.7 mph 20.7 mph N/A   Overcast
6:35 AM 48.2 °F 42.8 °F 82% 29.79 in 10.0 mi West 16.1 mph - N/A   Overcast
6:55 AM 48.2 °F 41.0 °F 76% 29.80 in 10.0 mi WNW 12.7 mph 20.7 mph N/A   Overcast
7:15 AM 48.2 °F 42.8 °F 82% 29.80 in 10.0 mi West 13.8 mph - N/A   Overcast
7:35 AM 48.2 °F 41.0 °F 76% 29.80 in 10.0 mi WNW 15.0 mph - N/A   Overcast
7:55 AM 48.2 °F 42.8 °F 82% 29.81 in 10.0 mi West 13.8 mph - N/A   Overcast
8:15 AM 48.2 °F 41.0 °F 76% 29.81 in 10.0 mi WNW 17.3 mph - N/A   Overcast
8:35 AM 48.2 °F 41.0 °F 76% 29.82 in 10.0 mi WNW 13.8 mph 21.9 mph N/A   Overcast
8:50 AM 48.2 °F 41.0 °F 76% 29.82 in 10.0 mi WNW 20.7 mph - N/A   Overcast
9:15 AM 48.2 °F 41.0 °F 76% 29.83 in 10.0 mi WNW 16.1 mph 23.0 mph N/A   Overcast
9:35 AM 50.0 °F 42.8 °F 76% 29.83 in 10.0 mi WNW 15.0 mph - N/A   Overcast
9:55 AM 50.0 °F 42.8 °F 76% 29.83 in 10.0 mi West 18.4 mph - N/A   Overcast
10:15 AM 50.0 °F 41.0 °F 71% 29.83 in 10.0 mi WNW 18.4 mph - N/A   Overcast
10:35 AM 51.8 °F 42.8 °F 71% 29.82 in 10.0 mi WNW 19.6 mph - N/A   Mostly Cloudy
10:55 AM 53.6 °F 42.8 °F 67% 29.82 in 10.0 mi NW 17.3 mph 25.3 mph N/A   Mostly Cloudy
11:15 AM 55.4 °F 42.8 °F 63% 29.82 in 10.0 mi NW 17.3 mph 23.0 mph N/A   Scattered Clouds
11:35 AM 57.2 °F 42.8 °F 59% 29.82 in 10.0 mi WNW 16.1 mph 25.3 mph N/A   Scattered Clouds
11:55 AM 57.2 °F 42.8 °F 59% 29.82 in 10.0 mi WNW 18.4 mph 25.3 mph N/A   Partly Cloudy
12:15 PM 59.0 °F 42.8 °F 55% 29.82 in 10.0 mi WNW 21.9 mph - N/A   Partly Cloudy
12:35 PM 59.0 °F 42.8 °F 55% 29.82 in 10.0 mi WNW 15.0 mph 23.0 mph N/A   Scattered Clouds
12:55 PM 60.8 °F 41.0 °F 48% 29.82 in 10.0 mi WNW 17.3 mph 25.3 mph N/A   Scattered Clouds
1:15 PM 62.6 °F 41.0 °F 45% 29.81 in 10.0 mi West 19.6 mph 25.3 mph N/A   Partly Cloudy
1:35 PM 62.6 °F 37.4 °F 39% 29.81 in 10.0 mi WNW 17.3 mph 24.2 mph N/A   Partly Cloudy
1:55 PM 62.6 °F 37.4 °F 39% 29.80 in 10.0 mi West 17.3 mph 24.2 mph N/A   Clear
2:15 PM 64.4 °F 35.6 °F 34% 29.80 in 10.0 mi WNW 16.1 mph 23.0 mph N/A   Clear
2:35 PM 64.4 °F 33.8 °F 32% 29.80 in 10.0 mi West 21.9 mph - N/A   Clear
2:55 PM 64.4 °F 32.0 °F 30% 29.80 in 10.0 mi West 15.0 mph 21.9 mph N/A   Clear
3:15 PM 66.2 °F 30.2 °F 26% 29.80 in 10.0 mi West 17.3 mph 24.2 mph N/A   Clear
3:35 PM 66.2 °F 30.2 °F 26% 29.80 in 10.0 mi West 16.1 mph 25.3 mph N/A   Clear
3:55 PM 66.2 °F 30.2 °F 26% 29.80 in 10.0 mi West 16.1 mph 23.0 mph N/A   Clear
4:15 PM 66.2 °F 30.2 °F 26% 29.79 in 10.0 mi West 17.3 mph - N/A   Clear
4:35 PM 66.2 °F 30.2 °F 26% 29.79 in 10.0 mi West 17.3 mph 25.3 mph N/A   Clear
4:55 PM 66.2 °F 30.2 °F 26% 29.79 in 10.0 mi West 13.8 mph 23.0 mph N/A   Clear
5:15 PM 66.2 °F 30.2 °F 26% 29.79 in 10.0 mi West 12.7 mph 21.9 mph N/A   Clear
5:35 PM 68.0 °F 32.0 °F 26% 29.79 in 10.0 mi WSW 16.1 mph 23.0 mph N/A   Clear
5:55 PM 68.0 °F 32.0 °F 26% 29.78 in 10.0 mi West 13.8 mph 20.7 mph N/A   Clear
6:15 PM 68.0 °F 32.0 °F 26% 29.78 in 10.0 mi West 13.8 mph - N/A   Clear
6:35 PM 68.0 °F 30.2 °F 24% 29.78 in 10.0 mi West 12.7 mph - N/A   Clear
6:55 PM 66.2 °F 30.2 °F 26% 29.78 in 10.0 mi West 10.4 mph - N/A   Clear
7:15 PM 66.2 °F 30.2 °F 26% 29.78 in 10.0 mi West 12.7 mph - N/A   Clear
7:35 PM 66.2 °F 32.0 °F 28% 29.79 in 10.0 mi West 9.2 mph - N/A   Clear
7:55 PM 64.4 °F 33.8 °F 32% 29.79 in 10.0 mi West 9.2 mph - N/A   Clear
8:15 PM 62.6 °F 35.6 °F 37% 29.79 in 8.0 mi West 6.9 mph - N/A   Clear
8:35 PM 60.8 °F 35.6 °F 39% 29.80 in 10.0 mi West 4.6 mph - N/A   Clear
8:55 PM 57.2 °F 37.4 °F 48% 29.80 in 10.0 mi West 4.6 mph - N/A   Clear
9:15 PM 55.4 °F 39.2 °F 54% 29.81 in 10.0 mi SW 6.9 mph - N/A   Clear
9:35 PM 53.6 °F 39.2 °F 58% 29.81 in 10.0 mi SW 4.6 mph - N/A   Partly Cloudy
9:55 PM 53.6 °F 41.0 °F 62% 29.82 in 10.0 mi WSW 4.6 mph - N/A   Partly Cloudy
10:15 PM 53.6 °F 39.2 °F 58% 29.83 in 10.0 mi Calm Calm - N/A   Scattered Clouds
10:35 PM 53.6 °F 41.0 °F 62% 29.83 in 10.0 mi Calm Calm - N/A   Scattered Clouds
10:55 PM 53.6 °F 39.2 °F 58% 29.84 in 10.0 mi Calm Calm - N/A   Scattered Clouds
11:15 PM 50.0 °F 41.0 °F 71% 29.84 in 10.0 mi Calm Calm - N/A   Scattered Clouds
11:35 PM 50.0 °F 41.0 °F 71% 29.84 in 10.0 mi NNE 3.5 mph - N/A   Scattered Clouds
11:55 PM 50.0 °F 41.0 °F 71% 29.84 in 10.0 mi Calm Calm - N/A   Partly Cloudy